Regional Weather Roundup
Issued by NWS

Home | Current Version | Previous Version | Graphics & Text | Print | Product List | Glossary On
Versions: 1 2 3 4 5 6 7 8 9 10 11 12 13 14 15 16 17 18 19 20 21 22 23 24 25 26 27 28 29 30 31 32 33 34 35 36 37 38 39 40 41 42 43 44 45 46 47 48 49 50
000
ASUS45 KTFX 230104
RWRMT
MONTANA HOURLY WEATHER ROUNDUP
NATIONAL WEATHER SERVICE GREAT FALLS MT
704 PM MDT WED OCT 22 2014

NOTE: "FAIR" INDICATES FEW OR NO CLOUDS BELOW 12000 FEET WITH NO
SIGNIFICANT WEATHER AND/OR OBSTRUCTIONS TO VISIBILITY.

* THESE STATIONS ARE NOT UNDER NWS QUALITY CONTROL. THEY DO NOT
   REPORT WEATHER SUCH AS PRECIPITATION OR FOG.

MTZ001>007-043-230200-
WEST OF THE DIVIDE
CITY           SKY/WX    TMP DP  RH WIND       PRES   REMARKS
KALISPELL      CLOUDY    54  37  53 SE8       29.88F
MISSOULA       PTCLDY    55  39  55 E5        29.93F
BUTTE          PTCLDY    46  30  54 S5        30.04R
MULLAN PASS    MOCLDY    39  34  82 VRB7      29.90F WCI  34
* ESSEX        N/A       48  40  74 NW2        N/A
* LINCOLN      N/A       52  33  48 W4G10      N/A
* POLSON       N/A       49  37  63 SE1        N/A
* RONAN APT    PTCLDY    55  39  55 N/A        N/A
* SEELEY LAKE  N/A       51  35  54 N1G6       N/A
* THOMP F APT  MOCLDY    41  28  60 SE3G12     N/A
$$

MTZ008-052>055-230200-
SOUTHWEST MONTANA
CITY           SKY/WX    TMP DP  RH WIND       PRES   REMARKS
BOZEMAN        PTCLDY    48  30  50 SE5       30.03R
DILLON         PTCLDY    46  30  54 S8        30.04R
W YELLOWSTONE  MOCLDY    36  27  70 S5        30.18S WCI  32
* THREE FORKS  PTCLDY    54  43  67 S17G26     N/A
* BOULDER HILL N/A       48  24  39 S13G19     N/A
* MONIDA PASS  N/A       37  28  70 SE14G19    N/A   WCI  28
* RAYNOLDS PAS N/A       37  20  50 SE9        N/A   WCI  30
* WHITEHALL    N/A       54  30  40 SW6G20     N/A
* WISE RIVER   N/A       48  28  46 W7G17      N/A
$$

MTZ009>010-012-014-046-048-049-054-230200-
EAST SLOPES AND CENTRAL MONTANA
CITY           SKY/WX    TMP DP  RH WIND       PRES   REMARKS
CUT BANK       PTCLDY    50  34  54 SW13      29.85S
GREAT FALLS    CLEAR     54  32  43 SW14      29.88R
HELENA         PTCLDY    55  32  42 SW5       29.94R
MALMSTROM AFB  CLEAR     52  34  50 SW18      29.89R
* CONRAD       CLEAR     55  39  55 N/A        N/A
* DEARBORN     N/A       59  32  36 S3G14      N/A
* EAST GLACIER N/A       48  33  56 W27G39     N/A
* MONARCH      N/A       49  19  30 SW14       N/A
* PENDROY      N/A       50  29  44 NW3        N/A
* ROGERS PASS  N/A       48  31  52 E9G14      N/A
* SAINT MARY   N/A       50  33  52 SW11G25    N/A
* SWEET GRASS  N/A       51  33  50 W18        N/A
$$

MTZ011-013-016-021-035-040-045-047-050-051-230200-
NORTH CENTRAL MONTANA
CITY           SKY/WX    TMP DP  RH WIND       PRES   REMARKS
HAVRE          PTCLDY    54  36  51 S12       29.83R
LEWISTOWN      CLEAR     46  30  54 SW12      29.91S
* CHESTER      N/A       55  35  47 SW5        N/A
* DENTON       N/A       47  27  46 SW9        N/A
* GEYSER       N/A       48  25  41 NW1        N/A
* JUDITH GAP   N/A       47  28  48 SW6        N/A
* LOMA         N/A       58  34  41 SW8G17     N/A
$$

MTZ017>020-022>027-061-062-230200-
NORTHEAST MONTANA
CITY           SKY/WX    TMP DP  RH WIND       PRES   REMARKS
GLASGOW        PTCLDY    54  32  43 SW7       29.86R
GLENDIVE       PTCLDY    45  30  56 W8        29.92R
JORDAN         PTCLDY    45  28  51 W5        29.89R
SIDNEY         PTCLDY    48  34  59 SW8       29.89R
WOLF POINT     CLEAR     52  34  50 W6        29.87R
* BEAVER HILL  N/A       51  30  45 SW9        N/A
* CIRCLE       N/A       53  34  49 W1         N/A
* LINDSAY DVD  N/A       45  30  56 W4         N/A
* NAVAJO       N/A       48  34  59 W11        N/A
$$

MTZ028>042-056>058-230200-
SOUTHCENTRAL AND SOUTHEAST MONTANA
CITY           SKY/WX    TMP DP  RH WIND       PRES   REMARKS
BAKER          PTCLDY    46  30  54 SW6       29.95R
BILLINGS       CLEAR     55  21  27 W12       29.95R
LIVINGSTON     PTCLDY    54  25  33 SW26G39   29.98F
MILES CITY     CLEAR     52  27  38 SW9       29.91S
* LAUREL APT   CLEAR     55  19  24 N/A        N/A
* ROUNDUP APT  CLEAR     55  27  34 W13        N/A
* ALZADA       N/A       49  27  43 E2         N/A
* HYSHAM       N/A       57  22  26 W2G7       N/A
* LAME DEER    N/A       54  22  29 S3         N/A
* REED POINT   N/A       57  26  30 W6         N/A
* ROSCOE HILL  N/A       52  15  23 S15G21     N/A
$$

REGIONAL REPORTS...DAKOTAS
CITY           SKY/WX    TMP DP  RH WIND       PRES   REMARKS
WILLISTON      CLEAR     54  34  47 W8        29.84R
DICKINSON      CLEAR     46  32  58 W9        29.89R
BEACH          N/A       46  32  58 SW6       29.93R
CROSBY         MOCLDY    50  46  86 W8        29.82R
TIOGA          CLOUDY    48  43  83 W6        29.86R
BISMARCK       CLEAR     55  37  51 SW6       29.89R
GRAND FORKS    CLOUDY    54  52  93 S7        29.84R
FARGO          CLOUDY    55  54  96 SW14      29.89R
BUFFALO SD     CLEAR     48  27  44 W9        29.91R
RAPID CITY     CLEAR     46  32  58 NE8       30.02R
$$

REGIONAL REPORTS...WYOMING/IDAHO/WASHINGTON
CITY           SKY/WX    TMP DP  RH WIND       PRES   REMARKS
GILLETTE       CLEAR     45  27  49 CALM      30.00R
SHERIDAN       CLEAR     43  28  56 W5        29.99R
CODY           CLEAR     55  21  27 W16G24    30.04R
YELLOWSTONE LA CLEAR     32  25  75 CALM      30.24R
SALMON         CLOUDY   N/A N/A N/A N/A        N/A
MULLAN PASS    MOCLDY    39  34  82 VRB7      29.90S WCI  34
SAND POINT     LGT RAIN  48  48 100 NE8       29.83F
SPOKANE        LGT RAIN  52  48  86 E6        29.81S

$$




USA.gov is the U.S. government's official web portal to all federal, state and local government web resources and services.